Temperature
20 20 20 20 20 20 19 19 19 19 19 19 19 19 19 19 19 19 19 19 19 19 19 19 19 19 19 19 19 18 18 18 18 18 18 18 18 18 18 18 18 17 18
20 20 20 20 20 20 20 19 19 19 19 19 19 19 19 19 19 19 19 19 19 19 19 19 19 19 18 18 18 18 18 18 18 18 18 18 18 18 18 18 18 18 18
20 20 20 20 20 20 20 20 19 19 19 19 19 19 19 19 19 19 19 19 19 19 19 19 19 19 18 18 18 18 18 18 18 18 18 17 18 18 18 18 18 18 18
20 20 20 20 20 20 20 19 19 19 19 19 19 19 19 19 19 19 19 19 19 18 18 18 18 18 18 18 18 18 18 18 18 18 18 18 17 18 18 18 18 18 18
20 20 20 20 20 20 20 20 19 19 19 19 19 19 19 19 19 19 19 19 19 18 18 18 18 18 18 18 18 18 18 18 18 18 18 17 17 18 18 18 18 18 18
20 20 20 20 20 20 20 20 19 19 19 19 19 19 19 19 19 19 19 19 18 18 18 18 18 18 18 18 18 18 18 18 18 18 18 17 17 18 18 18 18 18 18
20 20 20 20 20 20 20 20 19 19 19 19 19 19 19 19 19 19 19 19 18 18 18 18 18 18 18 18 18 18 18 18 18 18 18 18 18 18 18 18 18 18 17
20 20 20 20 20 20 20 20 20 19 19 19 19 19 19 19 19 19 19 18 18 18 18 18 18 18 18 18 18 18 18 18 18 18 18 18 18 18 18 18 18 17 17
20 20 20 20 20 20 20 20 20 19 19 19 19 19 19 19 19 19 19 18 18 18 18 18 18 18 18 18 18 18 18 18 18 18 18 18 18 18 18 18 17 17 17
20 20 20 20 19 19 20 20 20 20 19 19 19 19 19 19 19 19 18 19 19 19 18 18 18 18 18 18 18 18 18 18 18 18 18 18 18 18 18 18 17 17 17
20 20 20 20 20 20 19 19 19 19 19 19 19 19 19 18 18 18 18 19 18 18 18 18 18 18 18 18 18 18 18 18 18 18 18 18 18 18 18 18 17 17 17
20 20 20 20 20 20 19 19 19 19 19 19 18 18 18 18 18 18 18 19 18 18 18 18 18 18 18 18 18 18 18 18 18 18 18 18 18 18 18 18 18 17 17
21 20 20 20 20 19 19 19 19 19 19 19 18 18 18 18 18 18 18 18 18 18 18 18 18 18 18 18 18 18 18 18 18 18 18 18 18 18 18 18 17 17 17
21 20 20 20 20 20 19 19 19 19 19 18 19 18 18 18 18 18 18 18 18 18 18 18 18 18 18 18 18 18 18 18 18 18 18 18 18 18 18 18 18 17 17
21 20 20 20 20 20 19 19 19 19 19 19 19 18 18 18 18 18 18 18 18 18 18 18 18 18 18 18 18 18 18 18 18 18 18 18 18 18 18 18 18 18 17
21 20 20 20 20 20 19 19 19 19 19 19 19 19 19 18 18 18 18 18 18 18 18 18 18 18 18 18 18 18 18 18 18 18 18 18 18 18 18 18 18 18 17
21 20 20 20 20 20 19 19 19 19 19 19 19 19 19 18 18 18 18 18 18 18 18 18 18 18 18 18 18 18 18 18 18 18 18 18 17 18 18 18 18 17 17
21 20 20 20 20 20 20 19 19 19 19 19 19 19 19 19 19 18 18 18 18 18 18 18 18 18 18 18 18 18 18 18 18 18 18 17 17 17 17 18 18 18 17
21 20 20 20 20 20 20 19 19 19 19 19 19 19 19 19 19 18 18 18 18 18 18 18 18 18 18 18 18 18 18 18 17 18 18 17 17 17 17 17 17 17 17
20 20 20 20 20 20 19 19 19 19 19 19 19 19 19 18 19 18 18 18 18 18 18 18 17 17 17 17 18 18 18 18 18 18 18 18 17 17 17 17 17 17 17
20 20 20 20 20 20 19 19 19 19 19 19 19 19 19 18 18 18 18 18 18 18 18 18 17 17 17 17 18 18 18 18 18 18 17 18 17 17 17 17 17 17 17
20 20 20 20 20 19 19 19 19 19 19 19 19 19 19 19 18 18 18 18 18 18 18 18 17 17 17 17 18 18 19 18 18 18 17 17 17 17 17 17 17 16 17
21 20 20 20 20 19 19 19 19 19 19 18 18 19 19 18 18 18 18 18 18 18 18 18 18 17 17 17 17 18 19 19 18 18 17 17 17 17 17 17 17 16 16
21 21 20 20 20 20 20 19 19 19 19 19 18 18 18 18 18 18 18 18 18 18 18 18 18 17 17 17 17 17 18 18 18 18 18 17 17 17 17 17 17 16 16
21 21 20 20 20 20 20 19 19 19 19 18 18 18 18 18 18 18 18 18 18 18 18 18 18 18 17 17 17 17 17 17 18 18 18 17 17 17 17 16 16 16 16
21 21 20 20 20 20 20 19 19 19 19 19 18 18 18 18 18 18 18 18 18 18 18 18 18 17 17 17 17 17 17 17 18 17 17 17 17 17 16 16 16 16 16
Wind_Speed
6 9 13 11 10 11 11 12 12 12 12 12 11 11 11 12 12 12 13 12 12 12 12 12 11 11 10 10 10 10 10 10 11 11 10 10 9 10 10 10 10 9 11
8 11 13 11 11 11 11 11 12 11 11 11 11 11 11 11 12 12 12 12 11 11 11 11 10 10 10 9 9 10 10 10 11 11 11 10 9 9 8 8 6 8 11
9 11 13 12 11 11 11 11 11 11 10 10 10 11 11 10 11 11 11 11 10 10 10 10 10 9 9 8 8 9 9 9 10 11 11 10 10 10 9 8 9 10 10
10 11 12 13 11 11 12 11 11 10 10 9 10 10 10 10 10 10 11 11 10 10 10 9 9 9 9 8 8 9 8 8 9 11 10 8 9 11 10 10 10 10 11
10 11 14 13 12 12 12 11 11 10 9 9 9 10 10 9 9 9 10 9 9 9 9 9 9 8 8 8 8 8 8 8 8 9 7 7 7 11 11 11 10 10 11
10 11 14 13 12 12 11 11 10 10 10 10 11 10 9 9 8 8 9 8 7 8 8 8 8 7 7 7 6 7 8 8 9 7 6 7 8 11 11 11 10 10 10
11 11 14 13 12 12 11 11 10 9 9 10 10 10 9 8 8 7 7 7 6 6 6 7 7 7 6 6 6 6 7 7 6 5 6 6 8 11 11 11 10 10 10
10 11 13 14 12 11 11 10 9 9 9 9 9 9 9 8 8 7 7 6 6 5 5 6 6 6 6 5 5 5 5 7 7 4 5 6 9 10 11 11 11 10 11
9 9 10 12 12 12 10 10 9 8 8 8 8 8 8 8 8 7 6 6 5 4 4 4 4 5 6 5 5 6 6 6 5 4 5 5 10 10 10 10 10 10 10
8 8 8 9 9 9 10 11 9 8 9 8 8 8 8 8 8 7 7 6 4 4 4 4 3 4 5 6 6 5 6 8 5 4 4 6 9 9 9 9 9 9 10
8 7 7 7 8 7 8 10 10 9 9 9 9 9 7 6 6 6 7 6 5 4 4 4 3 4 5 6 6 6 7 5 3 3 3 7 9 8 8 8 8 9 9
9 8 6 7 7 7 6 7 6 6 7 6 5 6 4 4 3 4 8 5 4 4 4 4 3 5 6 5 7 8 4 3 3 3 3 8 9 9 8 8 9 9 9
9 8 7 6 6 5 5 5 4 4 5 5 5 4 3 3 3 2 3 5 4 5 4 5 4 2 1 1 1 2 2 1 1 1 4 8 8 8 9 8 8 9 9
9 8 7 7 5 5 4 4 4 4 3 4 5 3 3 2 1 1 1 1 2 2 2 1 1 1 1 1 1 2 2 1 1 1 4 7 7 8 8 8 8 9 9
8 8 7 6 6 5 4 3 4 3 3 4 4 3 2 2 1 1 1 1 0 1 1 1 1 1 1 2 2 2 1 1 1 1 4 7 6 7 7 8 8 8 9
7 7 7 7 6 5 4 3 3 3 3 3 3 3 2 1 1 1 1 0 0 1 1 0 0 0 0 1 1 1 1 1 1 1 2 6 8 7 6 6 7 7 8
8 7 7 7 6 6 5 4 3 3 4 3 3 3 2 1 1 1 0 0 1 1 1 0 1 1 1 2 1 1 1 0 1 1 1 2 5 7 6 5 5 6 7
8 7 7 6 7 6 5 4 3 3 3 3 3 3 2 1 1 1 1 0 0 0 1 1 0 1 1 1 1 1 1 1 1 1 1 2 2 3 6 7 5 5 5
8 8 8 7 7 6 5 4 4 3 3 3 3 2 2 1 1 1 1 1 0 0 0 0 1 0 1 0 1 1 1 1 1 1 1 1 2 2 3 6 7 6 5
8 8 8 8 7 7 5 4 3 3 3 3 3 2 2 2 1 1 1 1 1 1 0 0 1 0 1 1 0 0 1 1 1 1 1 1 2 2 3 3 5 6 7
9 9 9 9 9 7 5 4 4 4 3 3 3 3 2 2 1 1 1 1 1 1 1 1 1 2 1 1 1 1 2 2 1 1 0 0 1 2 3 3 4 3 5
10 9 9 9 9 8 6 4 3 3 3 3 2 2 2 2 1 2 1 2 1 1 1 1 2 2 1 2 2 2 2 2 1 1 1 1 1 1 2 3 2 3 3
10 10 9 9 9 8 7 6 5 4 3 3 3 2 2 2 2 2 2 1 1 2 2 2 2 2 2 1 1 2 2 0 0 2 1 1 0 1 1 1 2 2 3
11 10 10 10 9 8 8 6 6 5 4 3 2 2 2 2 3 2 2 2 2 1 1 2 2 2 2 2 1 1 2 1 2 1 2 1 1 1 1 1 1 2 3
10 10 10 10 9 9 8 7 6 5 4 3 3 3 2 2 2 2 2 2 2 2 1 2 1 2 2 2 2 1 1 1 3 2 2 1 1 1 1 1 1 1 2
10 10 10 10 9 9 9 8 8 6 5 4 3 2 2 2 2 2 3 3 3 2 2 2 2 3 2 3 3 2 2 2 2 2 2 3 2 1 1 1 2 1 1
Wind_Direction
131 129 130 138 136 134 133 132 133 134 136 138 138 139 139 139 141 141 143 143 142 141 141 142 143 144 146 148 149 149 147 145 147 152 155 157 159 156 155 158 168 154 140
130 130 129 133 132 134 133 134 136 134 133 135 137 139 139 139 140 143 145 145 145 144 141 140 143 146 149 151 152 152 152 154 156 159 162 161 163 165 164 163 168 137 146
129 130 132 128 128 129 129 130 130 127 128 132 136 137 137 138 141 144 145 145 147 146 144 144 145 146 151 150 150 150 153 158 162 167 177 170 162 165 166 160 153 149 155
128 129 126 125 126 124 125 125 125 123 125 130 136 135 136 137 139 143 145 148 150 150 148 149 149 151 152 152 151 150 152 157 171 186 183 168 163 159 169 168 163 163 163
125 126 121 124 123 123 124 122 120 119 115 119 132 134 132 132 136 140 142 146 147 149 150 150 149 154 157 157 159 160 161 165 180 199 169 163 159 159 171 172 167 167 168
126 125 121 125 122 123 123 121 117 115 112 113 123 126 126 127 132 138 142 142 143 148 150 153 154 154 156 158 163 167 172 179 195 178 168 168 162 163 172 176 172 172 173
126 124 124 127 124 122 122 122 117 115 114 114 118 124 124 124 128 135 137 138 143 146 148 155 160 161 164 162 165 169 178 198 201 176 171 171 159 162 176 178 178 179 178
127 128 127 129 126 123 121 121 118 117 117 120 123 123 123 124 128 129 128 129 129 129 140 153 157 159 161 166 170 173 187 219 195 181 177 163 151 165 175 182 184 185 182
131 131 132 134 133 132 126 124 124 124 124 126 127 126 124 122 123 118 118 122 117 121 132 144 153 161 167 172 180 184 196 228 220 173 175 158 152 169 179 187 190 188 186
134 134 134 134 133 137 136 133 131 130 130 131 129 128 127 130 131 130 132 124 124 131 133 134 145 159 172 178 184 192 209 226 215 182 175 151 156 174 183 187 190 191 191
137 139 137 137 138 141 136 136 145 144 141 147 141 138 153 148 137 143 116 114 127 133 132 130 138 161 183 181 184 203 218 219 199 198 181 140 164 180 187 190 191 193 195
146 144 141 142 141 142 137 139 149 146 142 148 131 137 143 129 127 124 121 134 138 141 147 148 174 191 217 184 179 205 217 200 209 201 156 147 173 184 188 191 195 198 199
147 146 149 147 144 144 140 144 145 138 137 135 129 137 129 130 133 132 138 149 159 172 166 153 183 185 182 151 205 200 208 209 215 199 137 151 177 187 195 197 203 206 203
153 154 152 147 143 148 144 143 149 141 137 131 127 129 125 117 120 117 147 137 164 156 128 142 155 149 177 170 177 173 189 216 193 172 137 152 177 192 200 201 207 208 201
162 160 155 152 148 152 152 156 144 140 141 129 126 126 117 123 117 105 92 74 92 94 133 167 164 178 196 178 172 165 183 208 226 215 152 149 171 190 197 202 207 206 203
169 164 160 165 161 160 161 154 148 148 149 142 136 127 142 134 119 127 121 85 58 80 49 38 47 135 176 129 141 142 196 205 192 212 191 162 169 177 185 198 206 205 203
170 165 167 169 164 164 164 160 157 161 155 154 143 143 161 150 128 172 151 190 49 72 98 147 98 120 141 139 132 137 169 185 170 157 188 179 164 164 170 181 191 200 202
169 167 173 169 163 162 160 157 154 163 157 156 149 149 153 157 161 205 184 197 125 164 163 142 174 120 110 131 136 126 118 127 149 188 183 175 177 170 163 168 179 186 187
171 170 170 169 166 164 159 155 157 160 164 159 151 154 147 155 156 190 175 98 207 179 227 214 126 171 148 124 163 154 154 133 147 181 187 175 172 183 183 160 177 186 191
170 171 172 172 169 168 166 162 161 159 169 167 160 151 155 159 163 217 169 164 201 180 205 13 75 29 283 251 269 110 175 194 225 191 226 185 174 188 197 200 195 185 185
171 172 178 179 170 173 173 177 170 168 171 166 165 152 165 174 175 258 286 184 216 177 194 205 204 180 207 195 209 197 181 186 192 176 222 215 169 185 192 210 222 210 185
175 174 176 179 175 179 175 176 175 162 177 173 170 157 178 180 201 212 230 233 200 175 173 194 216 231 212 213 245 240 216 171 184 168 163 170 201 192 195 202 199 207 221
182 183 182 179 177 181 175 174 167 165 183 179 183 182 187 192 203 228 228 247 220 213 177 191 209 229 245 228 245 268 271 244 163 171 174 159 169 269 245 204 207 215 218
188 186 185 181 180 179 176 181 182 184 191 184 189 167 183 194 207 214 216 217 233 230 191 216 191 237 254 249 193 271 303 327 283 236 195 168 165 278 294 275 238 211 211
185 185 180 179 180 178 178 180 189 194 193 181 179 167 200 193 200 205 208 211 224 236 237 257 233 243 248 267 264 243 238 220 252 266 265 262 258 279 297 295 288 252 227
182 181 176 175 180 180 182 184 193 194 191 181 192 187 201 197 194 192 208 216 224 235 232 237 240 226 252 272 276 262 255 257 261 261 267 263 278 290 298 296 271 253 235
Height
1506 1506 1505 1507 1508 1509 1511 1512 1514 1515 1516 1518 1519 1521 1522 1524 1525 1527 1528 1530 1532 1533 1535 1536 1537 1538 1539 1541 1542 1542 1543 1544 1545 1546 1547 1548 1550 1551 1552 1553 1554 1556 1556
1507 1507 1507 1508 1509 1510 1512 1513 1515 1516 1517 1519 1520 1521 1523 1525 1526 1528 1529 1531 1533 1534 1535 1537 1538 1539 1540 1541 1542 1543 1544 1545 1546 1546 1547 1549 1550 1551 1552 1553 1554 1556 1556
1508 1508 1508 1509 1510 1511 1513 1515 1516 1517 1518 1519 1521 1522 1524 1526 1527 1529 1530 1532 1534 1535 1536 1537 1539 1540 1541 1542 1543 1544 1544 1545 1546 1547 1548 1550 1551 1551 1553 1553 1555 1555 1557
1510 1511 1511 1511 1512 1513 1514 1516 1517 1518 1518 1518 1520 1522 1525 1527 1528 1530 1531 1533 1534 1536 1537 1538 1539 1540 1541 1542 1543 1544 1545 1545 1546 1547 1549 1551 1551 1551 1552 1553 1555 1556 1557
1512 1513 1512 1513 1514 1515 1516 1518 1519 1519 1518 1516 1518 1522 1525 1528 1529 1531 1532 1534 1535 1536 1537 1538 1539 1541 1542 1543 1544 1544 1545 1546 1546 1547 1549 1550 1551 1551 1552 1553 1555 1556 1557
1514 1515 1514 1515 1516 1517 1519 1520 1521 1521 1520 1518 1520 1524 1527 1529 1530 1532 1533 1535 1536 1537 1538 1539 1540 1541 1542 1543 1544 1545 1545 1546 1546 1548 1549 1550 1550 1550 1552 1553 1554 1556 1557
1516 1516 1517 1518 1519 1520 1521 1522 1523 1524 1524 1524 1525 1527 1529 1530 1532 1533 1534 1535 1536 1537 1538 1540 1540 1541 1542 1543 1544 1545 1545 1546 1547 1549 1549 1549 1549 1550 1551 1553 1554 1556 1557
1517 1519 1519 1520 1521 1522 1523 1524 1525 1526 1526 1527 1528 1529 1530 1532 1533 1534 1535 1536 1537 1538 1539 1540 1541 1542 1542 1543 1543 1544 1545 1546 1548 1549 1549 1550 1549 1550 1551 1553 1554 1555 1556
1519 1521 1522 1523 1523 1524 1526 1526 1527 1528 1528 1529 1530 1531 1532 1533 1534 1535 1536 1537 1538 1538 1539 1540 1541 1541 1542 1543 1543 1544 1545 1546 1548 1549 1549 1550 1549 1550 1551 1552 1554 1555 1556
1520 1522 1524 1525 1526 1528 1528 1529 1529 1530 1530 1531 1532 1533 1534 1535 1536 1536 1537 1538 1538 1539 1540 1540 1540 1541 1542 1542 1543 1544 1545 1546 1548 1549 1549 1549 1549 1550 1551 1552 1553 1554 1555
1522 1523 1525 1527 1528 1529 1531 1531 1531 1531 1532 1533 1534 1535 1536 1537 1538 1538 1539 1539 1539 1540 1540 1540 1540 1541 1541 1542 1543 1544 1545 1546 1547 1548 1548 1548 1548 1549 1550 1551 1553 1553 1555
1523 1525 1526 1528 1529 1531 1532 1532 1533 1534 1534 1535 1535 1537 1538 1538 1539 1540 1539 1540 1540 1540 1540 1540 1540 1541 1542 1543 1543 1543 1545 1546 1547 1548 1548 1547 1548 1549 1550 1551 1552 1553 1554
1524 1526 1527 1529 1530 1531 1532 1533 1534 1535 1535 1536 1536 1538 1538 1539 1540 1540 1541 1541 1540 1540 1541 1541 1541 1542 1542 1542 1543 1544 1545 1546 1546 1547 1547 1547 1548 1549 1549 1550 1551 1552 1553
1525 1526 1528 1529 1530 1531 1533 1534 1535 1536 1536 1537 1538 1538 1539 1540 1540 1541 1541 1541 1541 1541 1541 1541 1541 1541 1541 1541 1542 1543 1544 1545 1546 1546 1546 1547 1548 1548 1549 1549 1550 1551 1551
1525 1527 1528 1529 1530 1531 1532 1534 1535 1536 1537 1538 1538 1539 1539 1540 1541 1541 1541 1541 1541 1541 1541 1540 1540 1539 1539 1540 1541 1542 1543 1544 1545 1546 1546 1546 1547 1547 1548 1548 1549 1549 1550
1525 1527 1528 1529 1531 1532 1533 1534 1535 1537 1537 1538 1539 1540 1540 1541 1541 1541 1541 1541 1541 1541 1541 1540 1540 1538 1538 1539 1540 1542 1543 1544 1544 1545 1545 1545 1546 1546 1547 1547 1548 1549 1549
1525 1527 1528 1529 1531 1532 1533 1535 1536 1537 1538 1538 1539 1540 1540 1541 1541 1541 1541 1541 1541 1541 1541 1540 1540 1539 1539 1540 1541 1542 1543 1543 1543 1544 1544 1545 1545 1545 1546 1546 1547 1547 1548
1525 1526 1527 1530 1531 1532 1533 1535 1536 1537 1538 1538 1539 1540 1540 1540 1541 1541 1541 1542 1541 1541 1541 1541 1540 1540 1540 1540 1541 1542 1542 1542 1542 1543 1543 1543 1544 1544 1545 1545 1545 1546 1546
1524 1525 1527 1529 1530 1532 1533 1534 1535 1536 1537 1538 1539 1540 1540 1540 1540 1541 1541 1541 1541 1541 1541 1541 1541 1541 1540 1540 1541 1541 1542 1542 1542 1542 1542 1543 1543 1543 1544 1543 1544 1544 1545
1523 1524 1526 1528 1529 1531 1533 1534 1535 1536 1537 1538 1538 1539 1539 1540 1540 1540 1541 1540 1541 1541 1540 1540 1540 1540 1540 1540 1541 1541 1542 1541 1541 1541 1542 1542 1542 1542 1542 1543 1543 1543 1543
1522 1523 1525 1527 1528 1530 1532 1533 1534 1536 1537 1538 1538 1538 1539 1540 1540 1540 1540 1540 1540 1540 1540 1540 1540 1539 1540 1540 1541 1541 1541 1541 1540 1540 1541 1541 1541 1540 1541 1540 1541 1542 1542
1520 1521 1523 1525 1527 1529 1530 1532 1534 1535 1536 1537 1538 1538 1538 1539 1539 1540 1539 1540 1539 1539 1538 1539 1539 1539 1540 1540 1541 1541 1541 1541 1540 1540 1540 1540 1540 1540 1540 1539 1539 1539 1540
1518 1520 1522 1524 1525 1527 1529 1531 1533 1534 1536 1537 1537 1538 1538 1538 1539 1539 1539 1539 1539 1539 1538 1538 1538 1538 1539 1539 1539 1540 1540 1539 1540 1540 1539 1539 1538 1538 1538 1538 1538 1538 1538
1517 1519 1520 1522 1524 1526 1528 1530 1532 1533 1535 1536 1537 1537 1537 1538 1538 1538 1538 1538 1538 1538 1537 1537 1537 1538 1538 1539 1539 1538 1539 1539 1539 1539 1539 1538 1538 1537 1537 1537 1537 1536 1536
1515 1517 1519 1520 1523 1525 1527 1529 1530 1532 1534 1535 1536 1536 1536 1537 1537 1537 1537 1537 1537 1537 1536 1536 1536 1536 1537 1537 1538 1538 1538 1538 1538 1538 1537 1537 1537 1536 1536 1535 1535 1535 1534
1513 1515 1517 1519 1521 1523 1525 1527 1529 1530 1532 1533 1534 1535 1535 1536 1536 1536 1536 1536 1536 1536 1535 1535 1535 1535 1535 1535 1535 1536 1537 1537 1537 1536 1536 1535 1535 1535 1534 1533 1533 1532 1532